Tracking 25710 objects as of 5-Jul-2022
HD Live streaming from Space Station
objects crossing your sky now

FENGYUN 1C DEB

Track FENGYUN 1C DEB now!
10-day predictions


NORAD ID: 30391
Int'l Code: 1999-025ADE
Perigee: 813.7 km
Apogee: 927.4 km
Inclination: 98.9 °
Period: 102.2 minutes
Semi major axis: 7241 km
RCS: 0.0444 m2 (small)
Launch date: May 10, 1999
Source: People's Republic of China (PRC)
Launch site: Taiyaun Space Center, China (TSC)

Note: This is SATELLITE DEBRIS
aabbcc
Your satellite tracking list
Your tracking list is empty




NASA's NSSDC Master Catalog

Two Line Element Set (TLE):
1 30391U 99025ADE 22185.85466047  .00000917  00000-0  54113-3 0  9993
2 30391  98.8939 233.6440 0078513 221.8412 192.8017 14.08815326791407
Source of the keplerian elements: AFSPC